Flag for U.S.A. Weather past 2 weeks in Annapolis, Maryland, U.S.A.

Now
78 °F

Light rain. Mostly cloudy.


Feels Like: 81 °F
Forecast: 67 / 82 °F
Wind: 13 mph from South

Location: Annapolis - United States Naval Academy

Current Time: Jun 30, 2015 at 11:22:41 AM

Latest Report: Jun 30, 2015 at 10:54 AM


Visibility: 10 mi

Pressure: 29.90 "Hg

Humidity: 82%

Dew point: 72 °F

Location of AnnapolisLocation

Historic Weather in Annapolis — Graph

°F

Annapolis temperature yesterday

Maximum temperature yesterday: 80 °F (at 2:54 PM)
Minimum temperature yesterday: 61 °F (at 5:54 AM)
Average temperature yesterday: 72 °F

Past Weeks' High & Low Weather Summary

 TemperatureHumidityPressure
High93 °F (Jun 23, 2:54 PM)94% (Jun 16, 3:54 AM)30.12 "Hg (Jun 16, 3:54 AM)
Low61 °F (Jun 29, 5:54 AM)36% (Jun 29, 6:54 PM)29.64 "Hg (Jun 28, 2:54 AM)
Average77 °F71%29.96 "Hg
* Reported Jun 15 9:54 AM — Jun 30 9:54 AM, Annapolis, Weather by CustomWeather, © 2015

Note: Actual official high and low records may vary slightly from our data, if they occured in-between our weather recording intervals... More about our weather records

Advertising

Annapolis weather history for previous 24 hours

 ConditionsComfort  
Time TempWeatherWind HumidityBarometerVisibility
9:54 AM
Tue, Jun 30
77 °FMostly cloudy.14 mph85%29.92 "Hg10 mi
8:54 AM77 °FOvercast.12 mph85%29.91 "Hg10 mi
7:54 AM75 °FPartly sunny.8 mph88%29.92 "Hg10 mi
6:54 AM74 °FPartly sunny.7 mph88%29.92 "Hg10 mi
5:54 AM73 °FClear.14 mph88%29.91 "Hg10 mi
4:54 AM73 °FClear.8 mph88%29.90 "Hg10 mi
3:54 AM74 °FClear.8 mph82%29.90 "Hg10 mi
2:54 AM74 °FClear.6 mph82%29.92 "Hg10 mi
1:54 AM73 °FClear.5 mph76%29.93 "Hg10 mi
12:54 AM73 °FClear.5 mph76%29.94 "Hg10 mi
11:54 PM
Mon, Jun 29
74 °FClear.8 mph71%29.94 "Hg10 mi
10:54 PM74 °FClear.8 mph67%29.96 "Hg10 mi
9:54 PM75 °FClear.9 mph62%29.96 "Hg10 mi
8:54 PM74 °FSunny.7 mph62%29.94 "Hg10 mi
7:54 PM77 °FSunny.5 mph44%29.94 "Hg10 mi
6:54 PM80 °FSunny.8 mph36%29.93 "Hg10 mi
5:54 PM79 °FPassing clouds.9 mph47%29.93 "Hg10 mi
4:54 PM79 °FSunny.10 mph47%29.93 "Hg10 mi
3:54 PM79 °FPassing clouds.8 mph41%29.94 "Hg10 mi
2:54 PM80 °FPassing clouds.5 mph41%29.95 "Hg10 mi
1:54 PM78 °FPassing clouds.3 mph43%29.96 "Hg10 mi
12:54 PM78 °FSunny.9 mph42%29.96 "Hg10 mi
11:54 AM76 °FSunny.6 mph45%29.97 "Hg10 mi
Weather by CustomWeather, © 2015

See weather overviewHow to use our weather pages